Buffalo, NY

7:46 PM EDT on September 22, 2017 (GMT -0400)
Buffalo Niagara International

Weather History for KBUF - March, 2014

Change the Weather History Date:

Monday, March 24, 2014

  Actual Average Record
Temperature  
Mean Temperature 21 °F 37 °F  
Max Temperature 25 °F 45 °F 72 °F (1920)
Min Temperature 16 °F 29 °F 6 °F (1940)
Degree Days  
Heating Degree Days 44 28  
Month to date heating degree days 954 775  
Since 1 July heating degree days 6060 5519  
Cooling Degree Days 0 0  
Month to date cooling degree days 0 0  
Year to date cooling degree days 0 0  
Moisture  
Dew Point 11 °F    
Average Humidity 68    
Maximum Humidity 80    
Minimum Humidity 55    
Precipitation  
Precipitation T in 0.10 in 0.78 in (1878)
Month to date precipitation 1.53 2.20  
Year to date precipitation 8.31 7.87  
Snow  
Snow 0.10 in 0.30 in 4.20 in (1960)
Month to date snowfall 17.5 11.0  
Since 1 July snowfall 121.7 89.8  
Snow Depth T in    
Sea Level Pressure  
Sea Level Pressure 30.23 in    
Wind  
Wind Speed 11 mph (WSW)    
Max Wind Speed 20 mph    
Max Gust Speed 25 mph    
Visibility 8 miles    
Events Snow    
T = Trace of Precipitation, MM = Missing Value Source: NWS Daily Summary

Daily Weather History Graph

Daily Weather History Graph

Search for Another Location

Airport or City:

Trip Planner

Search our weather history database for the weather conditions in past years. The results will help you decide how hot, cold, wet, or windy it might be!

Date:

Astronomy

Mar. 24, 2014 Rise Set
Actual Time 7:11 AM EDT 7:31 PM EDT
Civil Twilight 6:42 AM EDT 8:00 PM EDT
Nautical Twilight 6:09 AM EDT 8:33 PM EDT
Astronomical Twilight 5:35 AM EDT 9:08 PM EDT
Moon 2:47 AM EDT (3/24) 12:47 PM EDT (3/24)
Length of Visible Light 13h 17m
Length of Day
12h 20m
Last Quarter, 43% of the Moon is Illuminated
Mar 24
Last Quarter
Mar 30
New
Apr 7
First Quarter
Apr 15
Full
Apr 22
Last Quarter

Hourly Weather History & Observations

Time (EDT) Temp. Windchill Dew Point Humidity Pressure Visibility Wind Dir Wind Speed Gust Speed Precip Events Conditions
12:54 AM 17.1 °F 6.6 °F 6.1 °F 62% 30.32 in 10.0 mi West 8.1 mph - N/A   Scattered Clouds
1:54 AM 17.1 °F 5.8 °F 7.0 °F 65% 30.32 in 10.0 mi West 9.2 mph - N/A   Mostly Cloudy
2:54 AM 17.1 °F 6.6 °F 7.0 °F 65% 30.32 in 10.0 mi West 8.1 mph - N/A   Mostly Cloudy
3:54 AM 17.1 °F 5.0 °F 8.1 °F 68% 30.31 in 5.0 mi West 10.4 mph - 0.00 in Snow Light Snow
4:19 AM 16.0 °F 5.3 °F 9.0 °F 74% 30.27 in 3.0 mi West 8.1 mph - 0.00 in Snow Light Snow
4:31 AM 17.1 °F 5.0 °F 8.1 °F 68% 30.27 in 9.0 mi West 10.4 mph - 0.00 in Snow Light Snow
4:54 AM 17.1 °F 5.0 °F 9.0 °F 71% 30.32 in 6.0 mi West 10.4 mph - 0.00 in Snow Light Snow
5:25 AM 16.0 °F 4.4 °F 10.0 °F 77% 30.27 in 2.5 mi West 9.2 mph - 0.00 in Snow Light Snow
5:34 AM 16.0 °F 4.4 °F 10.0 °F 77% 30.27 in 3.0 mi West 9.2 mph - 0.00 in Snow Light Snow
5:54 AM 16.0 °F 4.4 °F 10.9 °F 81% 30.32 in 5.0 mi West 9.2 mph - 0.00 in Snow Light Snow
6:54 AM 16.0 °F 7.4 °F 10.9 °F 81% 30.31 in 7.0 mi West 5.8 mph - 0.00 in Snow Light Snow
7:07 AM 16.0 °F 4.4 °F 10.9 °F 81% 30.27 in 4.0 mi West 9.2 mph - 0.00 in Snow Light Snow
7:54 AM 16.0 °F 4.4 °F 10.9 °F 81% 30.32 in 4.0 mi West 9.2 mph - 0.00 in Snow Light Snow
8:23 AM 17.1 °F 6.6 °F 10.9 °F 77% 30.28 in 4.0 mi West 8.1 mph - 0.00 in Snow Light Snow
8:40 AM 18.0 °F 7.7 °F 10.0 °F 71% 30.27 in 10.0 mi West 8.1 mph - 0.00 in Snow Light Snow
8:54 AM 18.0 °F 6.1 °F 10.9 °F 74% 30.31 in 10.0 mi West 10.4 mph - 0.00 in Snow Light Snow
9:54 AM 19.9 °F 11.1 °F 10.0 °F 65% 30.31 in 10.0 mi Variable 6.9 mph - 0.00 in   Partly Cloudy
10:54 AM 19.9 °F 7.9 °F 6.1 °F 55% 30.30 in 10.0 mi West 11.5 mph - N/A   Mostly Cloudy
11:54 AM 19.9 °F 10.1 °F 8.1 °F 60% 30.30 in 7.0 mi West 8.1 mph 18.4 mph 0.00 in Snow Light Snow
12:54 PM 21.9 °F 9.2 °F 9.0 °F 58% 30.27 in 10.0 mi SW 13.8 mph - 0.00 in Snow Light Snow
1:54 PM 21.9 °F 9.2 °F 10.0 °F 60% 30.25 in 10.0 mi SW 13.8 mph 20.7 mph 0.00 in Snow Light Snow
2:22 PM 21.9 °F 9.8 °F 10.0 °F 60% 30.20 in 8.0 mi WSW 12.7 mph - 0.00 in Snow Light Snow
2:54 PM 24.1 °F 10.6 °F 10.9 °F 57% 30.22 in 10.0 mi SW 17.3 mph 23.0 mph 0.00 in Snow Light Snow
3:54 PM 24.1 °F 12.0 °F 10.9 °F 57% 30.20 in 10.0 mi SW 13.8 mph - 0.00 in   Mostly Cloudy
4:54 PM 24.1 °F 13.1 °F 10.0 °F 55% 30.18 in 10.0 mi SW 11.5 mph - N/A   Mostly Cloudy
5:54 PM 24.1 °F 12.0 °F 10.9 °F 57% 30.16 in 10.0 mi SW 13.8 mph - N/A   Mostly Cloudy
6:18 PM 24.1 °F 11.0 °F 12.9 °F 62% 30.12 in 10.0 mi SW 16.1 mph 21.9 mph N/A   Mostly Cloudy
6:43 PM 23.0 °F 9.6 °F 10.9 °F 60% 30.11 in 10.0 mi SW 16.1 mph 21.9 mph N/A   Mostly Cloudy
6:54 PM 23.0 °F 9.6 °F 12.0 °F 63% 30.16 in 10.0 mi WSW 16.1 mph - N/A   Mostly Cloudy
7:15 PM 23.0 °F 10.6 °F 12.9 °F 65% 30.12 in 10.0 mi WSW 13.8 mph - N/A   Mostly Cloudy
7:43 PM 21.9 °F 8.2 °F 12.0 °F 66% 30.11 in 10.0 mi WSW 16.1 mph - N/A   Scattered Clouds
7:54 PM 21.9 °F 8.7 °F 12.9 °F 68% 30.15 in 10.0 mi WSW 15.0 mph - N/A   Scattered Clouds
8:13 PM 23.0 °F 10.6 °F 14.0 °F 68% 30.11 in 10.0 mi WSW 13.8 mph - N/A   Mostly Cloudy
8:54 PM 23.0 °F 12.4 °F 15.1 °F 72% 30.16 in 10.0 mi WSW 10.4 mph - N/A   Mostly Cloudy
9:39 PM 21.9 °F 13.4 °F 15.1 °F 75% 30.12 in 10.0 mi WSW 6.9 mph - N/A   Mostly Cloudy
9:54 PM 21.9 °F 11.7 °F 15.1 °F 75% 30.15 in 10.0 mi WSW 9.2 mph - N/A   Mostly Cloudy
10:18 PM 21.9 °F 11.0 °F 15.1 °F 75% 30.10 in 10.0 mi SSW 10.4 mph - 0.00 in Snow Light Snow
10:54 PM 21.9 °F 11.0 °F 15.1 °F 75% 30.14 in 9.0 mi SW 10.4 mph - 0.00 in Snow Light Snow
11:15 PM 21.0 °F 10.6 °F 14.0 °F 74% 30.09 in 9.0 mi SSW 9.2 mph - 0.00 in Snow Light Snow
11:54 PM 19.9 °F 11.1 °F 12.9 °F 74% 30.12 in 10.0 mi South 6.9 mph - 0.00 in   Scattered Clouds